User: anonymous   Login
Location: Newark
(48.6461°N, 4.3644°W)
Time: 21:52:07
(UTC+00:00)
Language:

Tiros 1 despin weight - Orbit

View from above orbital plane
View from above orbital plane
View from above satellite
View from above satellite

Ground track
Ground track

The orbit data is extracted from the following two-line orbital elements,

1   115U 60002D   20017.17928314 -.00000099 +00000-0 +15311-4 0  9994
2   115 048.1671 286.4286 0035190 297.9898 061.7455 14.83526478169206
Epoch (UTC): 17 January 2020 04:18:10
Eccentricity: 0.0035190
inclination: 48.1671°
perigee height: 593 km
apogee height: 643 km
right ascension of ascending node: 286.4286°
argument of perigee: 297.9898°
revolutions per day: 14.83526478
mean anomaly at epoch: 61.7455°
orbit number at epoch: 16920

The dashed part of the orbit path shows where the satellite is in the earth's shadow,  

DLR